Вернуться в каталог

KUIPER-00229

АктивенСвязьLEO
NORAD 68578·PAYLOAD·🇺🇸 United States

Запущен Apr 4, 2026 с Cape Canaveral Space Force Station

Loading…

Ближайшие Пролёты (ближайшие 24 часа)

TLE

СвежийSource: CelesTrak SupGP

Эпоха: Sep 14, 2026, 21:06 UTC

1 68578C 26072F   26257.87945602 -.00000802  00000+0 -10496-3 0  2575
2 68578  51.8999 159.0364 0000740  98.6476 308.7757 14.79922794    18

Отслеживайте KUIPER-00229 в реальном времени с AllMySat

Download on the App Store